Date String (YYYY-MM-DD hh:mm:ss) UTC,Instrument flags,Ambient pressure (hPa),Sample flow (lpm),Bypass flow (lpm),Sample temperature (°C),Ambient temperature (°C),ASC tube jacket temperature (°C),LED temperature (°C),Box temperature (°C),Sample RH (%),Span deviation,Mass concentration (μg/m³),Mass concentration (μg/m³),Mass concentration (μg/m³)
DateTimeUTC,F1_M11,P_M11,Q1_M11,Q2_M11,T1_M11,T2_M11,T3_M11,T4_M11,T5_M11,U1_M11,ZSPAN_M11,X0_M11,X2_M11,X1_M11
2022-07-08 15:00:00,,0833.1,4.99,0.00,29.8,27.8,00.0,38.6,31.5,33.2,0000.0,0011.71,0004.60,0003.84
2022-07-08 15:01:00,,0833.1,4.99,0.00,29.7,28.0,00.0,38.6,31.6,33.3,0000.0,0010.86,0004.54,0003.81
2022-07-08 15:02:00,,0833.1,5.00,0.00,29.7,28.1,00.0,38.6,31.6,33.1,0000.0,0011.22,0004.46,0003.77
2022-07-08 15:03:00,,0833.1,5.00,0.00,29.7,28.2,00.0,38.6,31.6,32.9,0000.0,0012.17,0004.46,0003.74
2022-07-08 15:04:00,,0833.1,5.00,0.00,29.7,28.3,00.0,38.6,31.6,32.9,0000.0,0011.26,0004.45,0003.71
2022-07-08 15:05:00,,0833.1,5.00,0.00,29.8,28.4,00.0,38.6,31.7,32.8,0000.0,0011.16,0004.48,0003.68
2022-07-08 15:06:00,,0833.0,5.01,0.00,29.8,28.4,00.0,38.6,31.7,32.6,0000.0,0011.02,0004.52,0003.67
2022-07-08 15:07:00,,0833.0,5.00,0.00,29.8,28.5,00.0,38.6,31.7,32.6,0000.0,0011.67,0004.49,0003.65
2022-07-08 15:08:00,,0833.1,5.01,0.00,29.8,28.6,00.0,38.6,31.7,32.5,0000.0,0011.76,0004.43,0003.63
2022-07-08 15:09:00,,0833.0,5.00,0.00,29.8,28.6,00.0,38.6,31.8,32.4,0000.0,0012.08,0004.41,0003.60
2022-07-08 15:10:00,,0833.1,4.99,0.00,29.8,28.7,00.0,38.6,31.7,32.4,0000.0,0012.46,0004.41,0003.59
2022-07-08 15:11:00,,0833.1,5.00,0.00,29.9,28.8,00.0,38.6,31.8,32.9,0000.0,0012.79,0004.44,0003.59
2022-07-08 15:12:00,,0833.0,5.00,0.00,29.9,28.6,00.0,38.6,31.8,33.1,0000.0,0012.75,0004.42,0003.58
2022-07-08 15:13:00,,0833.0,4.99,0.00,29.9,28.0,00.0,38.5,31.7,32.9,0000.0,0013.35,0004.49,0003.60
2022-07-08 15:14:00,,0833.0,5.00,0.00,29.9,27.5,00.0,38.5,31.7,32.8,0000.0,0012.91,0004.49,0003.61
2022-07-08 15:15:00,,0833.1,5.00,0.00,29.8,27.4,00.0,38.5,31.5,33.0,0000.0,0013.08,0004.50,0003.61
2022-07-08 15:16:00,,0833.0,5.00,0.00,29.7,27.4,00.0,38.5,31.5,32.3,0000.0,0012.91,0004.45,0003.61
2022-07-08 15:17:00,,0833.0,5.00,0.00,29.7,27.6,00.0,38.5,31.4,32.3,0000.0,0012.48,0004.39,0003.60
2022-07-08 15:18:00,,0833.1,5.01,0.00,29.7,27.7,00.0,38.5,31.4,32.4,0000.0,0011.68,0004.37,0003.60
2022-07-08 15:19:00,,0833.0,5.00,0.00,29.6,27.8,00.0,38.5,31.5,33.2,0000.0,0011.85,0004.40,0003.58
2022-07-08 15:20:00,,0833.0,4.99,0.00,29.6,28.0,00.0,38.5,31.5,33.2,0000.0,0011.55,0004.41,0003.56
2022-07-08 15:21:00,,0833.1,4.99,0.00,29.7,28.1,00.0,38.5,31.5,33.0,0000.0,0011.09,0004.42,0003.55
2022-07-08 15:22:00,,0833.1,5.00,0.00,29.7,28.2,00.0,38.5,31.5,32.9,0000.0,0010.70,0004.39,0003.54
2022-07-08 15:23:00,,0833.1,4.98,0.00,29.7,28.3,00.0,38.5,31.6,33.0,0000.0,0010.64,0004.38,0003.54
2022-07-08 15:24:00,,0833.1,4.99,0.00,29.7,28.4,00.0,38.5,31.6,32.8,0000.0,0009.83,0004.30,0003.53
2022-07-08 15:25:00,,0833.0,5.00,0.00,29.7,28.5,00.0,38.5,31.7,32.6,0000.0,0008.72,0004.24,0003.51
2022-07-08 15:26:00,,0833.0,4.99,0.00,29.7,28.6,00.0,38.5,31.7,32.8,0000.0,0009.03,0004.20,0003.50
2022-07-08 15:27:00,,0833.0,5.00,0.00,29.8,28.6,00.0,38.5,31.7,33.2,0000.0,0009.46,0004.16,0003.48
2022-07-08 15:28:00,,0833.0,5.00,0.00,29.8,28.7,00.0,38.5,31.7,32.8,0000.0,0009.70,0004.16,0003.47
2022-07-08 15:29:00,,0833.1,5.01,0.00,29.8,28.7,00.0,38.5,31.8,32.9,0000.0,0009.72,0004.15,0003.46
2022-07-08 15:30:00,,0833.1,5.01,0.00,29.8,28.6,00.0,38.5,31.8,32.5,0000.0,0009.65,0004.14,0003.47
2022-07-08 15:31:00,,0833.1,5.00,0.00,29.8,28.1,00.0,38.5,31.7,32.7,0000.0,0010.23,0004.11,0003.47
2022-07-08 15:32:00,,0833.1,5.00,0.00,29.8,27.5,00.0,38.4,31.6,32.7,0000.0,0010.53,0004.10,0003.47
2022-07-08 15:33:00,,0833.1,5.01,0.00,29.8,27.4,00.0,38.4,31.5,32.9,0000.0,0010.47,0004.10,0003.47
2022-07-08 15:34:00,,0833.1,5.00,0.00,29.7,27.4,00.0,38.4,31.4,32.9,0000.0,0010.53,0004.12,0003.46
2022-07-08 15:35:00,,0833.1,4.99,0.00,29.6,27.5,00.0,38.4,31.4,32.9,0000.0,0010.69,0004.15,0003.47
2022-07-08 15:36:00,,0833.1,5.00,0.00,29.6,27.7,00.0,38.4,31.4,33.0,0000.0,0010.80,0004.17,0003.47
2022-07-08 15:37:00,,0833.1,5.00,0.00,29.6,27.8,00.0,38.4,31.4,32.8,0000.0,0010.75,0004.15,0003.48
2022-07-08 15:38:00,,0833.1,4.99,0.00,29.6,28.0,00.0,38.4,31.5,33.0,0000.0,0010.39,0004.17,0003.48
2022-07-08 15:39:00,,0833.1,5.00,0.00,29.6,28.1,00.0,38.4,31.5,32.8,0000.0,0010.18,0004.22,0003.51
2022-07-08 15:40:00,,0833.1,4.99,0.00,29.6,28.2,00.0,38.4,31.5,33.3,0000.0,0010.52,0004.23,0003.52
2022-07-08 15:41:00,,0833.1,5.01,0.00,29.6,28.3,00.0,38.4,31.5,33.1,0000.0,0010.76,0004.26,0003.54
2022-07-08 15:42:00,,0833.0,5.00,0.00,29.7,28.4,00.0,38.4,31.6,32.9,0000.0,0009.89,0004.28,0003.55
2022-07-08 15:43:00,,0833.1,5.01,0.00,29.7,28.5,00.0,38.4,31.6,33.0,0000.0,0009.64,0004.31,0003.58
2022-07-08 15:44:00,,0833.1,4.99,0.00,29.7,28.6,00.0,38.5,31.7,33.4,0000.0,0009.60,0004.32,0003.58
2022-07-08 15:45:00,,0833.1,5.00,0.00,29.7,28.6,00.0,38.5,31.7,33.1,0000.0,0010.05,0004.31,0003.60
2022-07-08 15:46:00,,0833.1,4.99,0.00,29.8,28.6,00.0,38.5,31.8,33.1,0000.0,0010.37,0004.34,0003.63
2022-07-08 15:47:00,,0833.2,5.01,0.00,29.8,28.0,00.0,38.4,31.7,33.0,0000.0,0011.01,0004.33,0003.64
2022-07-08 15:48:00,,0833.1,5.00,0.00,29.8,27.5,00.0,38.4,31.6,32.7,0000.0,0010.67,0004.32,0003.65
2022-07-08 15:49:00,,0833.1,5.00,0.00,29.7,27.3,00.0,38.4,31.5,32.8,0000.0,0010.53,0004.30,0003.65
2022-07-08 15:50:00,,0833.2,5.01,0.00,29.6,27.4,00.0,38.4,31.4,33.4,0000.0,0010.94,0004.25,0003.63
2022-07-08 15:51:00,,0833.1,5.00,0.00,29.6,27.5,00.0,38.4,31.4,33.3,0000.0,0011.03,0004.22,0003.63
2022-07-08 15:52:00,,0833.2,5.00,0.00,29.6,27.7,00.0,38.3,31.4,33.5,0000.0,0010.74,0004.18,0003.62
2022-07-08 15:53:00,,0833.1,4.99,0.00,29.6,27.8,00.0,38.3,31.4,33.7,0000.0,0010.77,0004.17,0003.62
2022-07-08 15:54:00,,0833.1,5.00,0.00,29.6,28.0,00.0,38.3,31.4,33.8,0000.0,0011.13,0004.14,0003.61
2022-07-08 15:55:00,,0833.1,5.00,0.00,29.6,28.1,00.0,38.4,31.5,33.8,0000.0,0011.83,0004.13,0003.62
2022-07-08 15:56:00,,0833.1,5.01,0.00,29.6,28.2,00.0,38.4,31.5,33.4,0000.0,0011.83,0004.16,0003.64
2022-07-08 15:57:00,,0833.2,5.00,0.00,29.6,28.3,00.0,38.4,31.6,33.3,0000.0,0011.31,0004.16,0003.63
2022-07-08 15:58:00,,0833.1,5.00,0.00,29.6,28.4,00.0,38.4,31.6,33.1,0000.0,0010.77,0004.16,0003.64
2022-07-08 15:59:00,,0833.1,4.98,0.00,29.7,28.5,00.0,38.4,31.6,33.3,0000.0,0011.17,0004.19,0003.66
